When you browse on this site, cookies collect data to enhance your experience and personalize the content and advertising you see.
Visit our Privacy Policy to learn more. By continuing to use the site, you agree to this use of cookies and data.
  • En España
  • Lista de países
  • Para 7 días
  • Temperatura del agua
  • El tiempo en el mapa
  • Informadores
  • user-avatar
    Iniciar sesión

    Tiempo cada hora El Monte

    Hoy, 29 Enero, Miércoles

    Tiempo Temperatura Precipitaciones Viento Presión Humedad
    00:00 +15°C° 0 mm 1 mps 736 mmHg 92%
    01:00 +15°C° 0 mm 1 mps 736 mmHg 92%
    02:00 +15°C° 0 mm 1 mps 736 mmHg 92%
    03:00 +15°C° 0 mm 1 mps 736 mmHg 93%
    04:00 +14°C° 0 mm 1 mps 736 mmHg 93%
    05:00 +16°C° 0 mm 1 mps 736 mmHg 87%
    06:00 +18°C° 0 mm 1 mps 736 mmHg 82%
    07:00 +19°C° 0 mm 1 mps 737 mmHg 76%
    08:00 +22°C° 0 mm 1 mps 737 mmHg 63%
    09:00 +25°C° 0 mm 2 mps 737 mmHg 51%
    10:00 +28°C° 0 mm 2 mps 737 mmHg 38%
    11:00 +30°C° 0 mm 3 mps 737 mmHg 33%
    12:00 +32°C° 0 mm 4 mps 737 mmHg 29%
    13:00 +34°C° 0 mm 5 mps 737 mmHg 25%
    14:00 +33°C° 0 mm 5 mps 737 mmHg 25%
    15:00 +33°C° 0 mm 5 mps 737 mmHg 25%
    16:00 +32°C° 0 mm 5 mps 737 mmHg 26%
    17:00 +27°C° 0 mm 4 mps 737 mmHg 36%
    18:00 +24°C° 0 mm 3 mps 737 mmHg 46%
    19:00 +19°C° 0 mm 2 mps 737 mmHg 56%
    20:00 +19°C° 0 mm 1 mps 737 mmHg 63%
    21:00 +16°C° 0 mm 1 mps 738 mmHg 70%
    22:00 +14°C° 0 mm 0 mps 738 mmHg 78%
    23:00 +14°C° 0 mm 0 mps 737 mmHg 77%

    Mañana, 30 Enero, Jueves

    Tiempo Temperatura Precipitaciones Viento Presión Humedad
    00:00 +13°C° 0 mm 0 mps 737 mmHg 77%
    01:00 +13°C° 0 mm 0 mps 737 mmHg 77%
    02:00 +13°C° 0 mm 0 mps 737 mmHg 76%
    03:00 +13°C° 0 mm 0 mps 736 mmHg 76%
    04:00 +13°C° 0 mm 0 mps 736 mmHg 75%
    05:00 +16°C° 0 mm 0 mps 736 mmHg 66%
    06:00 +18°C° 0 mm 0 mps 737 mmHg 58%
    07:00 +20°C° 0 mm 0 mps 737 mmHg 49%
    08:00 +25°C° 0 mm 1 mps 737 mmHg 42%
    09:00 +28°C° 0 mm 2 mps 737 mmHg 35%
    10:00 +31°C° 0 mm 2 mps 738 mmHg 28%
    11:00 +34°C° 0 mm 3 mps 737 mmHg 25%
    12:00 +36°C° 0 mm 4 mps 737 mmHg 22%
    13:00 +37°C° 0 mm 5 mps 737 mmHg 19%
    14:00 +36°C° 0 mm 5 mps 737 mmHg 20%
    15:00 +35°C° 0 mm 5 mps 737 mmHg 22%
    16:00 +33°C° 0 mm 5 mps 736 mmHg 24%
    17:00 +29°C° 0 mm 4 mps 737 mmHg 32%
    18:00 +25°C° 0 mm 3 mps 737 mmHg 41%
    19:00 +20°C° 0 mm 2 mps 737 mmHg 49%
    20:00 +19°C° 0 mm 1 mps 737 mmHg 55%
    21:00 +18°C° 0 mm 1 mps 737 mmHg 60%
    22:00 +14°C° 0 mm 0 mps 737 mmHg 66%
    23:00 +14°C° 0 mm 0 mps 737 mmHg 66%

    Pasado mañana, 31 Enero, Viernes

    Tiempo Temperatura Precipitaciones Viento Presión Humedad
    00:00 +14°C° 0 mm 0 mps 736 mmHg 65%
    01:00 +14°C° 0 mm 0 mps 736 mmHg 65%
    02:00 +14°C° 0 mm 0 mps 736 mmHg 65%
    03:00 +14°C° 0 mm 0 mps 736 mmHg 65%
    04:00 +14°C° 0 mm 0 mps 736 mmHg 65%
    05:00 +16°C° 0 mm 0 mps 736 mmHg 56%
    06:00 +19°C° 0 mm 0 mps 736 mmHg 47%
    07:00 +21°C° 0 mm 0 mps 736 mmHg 38%
    08:00 +26°C° 0 mm 1 mps 737 mmHg 32%
    09:00 +29°C° 0 mm 2 mps 737 mmHg 27%
    10:00 +33°C° 0 mm 3 mps 737 mmHg 21%
    11:00 +35°C° 0 mm 3 mps 737 mmHg 19%
    12:00 +36°C° 0 mm 4 mps 736 mmHg 17%
    13:00 +39°C° 0 mm 5 mps 736 mmHg 15%
    14:00 +36°C° 0 mm 5 mps 736 mmHg 17%
    15:00 +35°C° 0 mm 5 mps 736 mmHg 19%
    16:00 +33°C° 0 mm 5 mps 736 mmHg 21%
    17:00 +29°C° 0 mm 4 mps 736 mmHg 30%
    18:00 +25°C° 0 mm 3 mps 736 mmHg 40%
    19:00 +20°C° 0 mm 2 mps 736 mmHg 49%
    20:00 +20°C° 0 mm 1 mps 736 mmHg 57%
    21:00 +18°C° 0 mm 1 mps 736 mmHg 64%
    22:00 +14°C° 0 mm 0 mps 736 mmHg 72%
    23:00 +14°C° 0 mm 0 mps 736 mmHg 72%

    1 Febrero, Sábado

    Tiempo Temperatura Precipitaciones Viento Presión Humedad
    00:00 +14°C° 0 mm 0 mps 736 mmHg 72%
    01:00 +14°C° 0 mm 0 mps 736 mmHg 72%
    02:00 +14°C° 0 mm 0 mps 736 mmHg 71%
    03:00 +14°C° 0 mm 0 mps 735 mmHg 70%
    04:00 +13°C° 0 mm 0 mps 735 mmHg 69%
    05:00 +16°C° 0 mm 0 mps 736 mmHg 60%
    06:00 +18°C° 0 mm 0 mps 736 mmHg 52%
    07:00 +22°C° 0 mm 1 mps 737 mmHg 44%
    08:00 +25°C° 0 mm 1 mps 737 mmHg 37%
    09:00 +28°C° 0 mm 2 mps 737 mmHg 30%
    10:00 +31°C° 0 mm 3 mps 737 mmHg 23%
    11:00 +34°C° 0 mm 3 mps 737 mmHg 21%
    12:00 +35°C° 0 mm 4 mps 737 mmHg 19%
    13:00 +37°C° 0 mm 5 mps 737 mmHg 17%
    14:00 +35°C° 0 mm 5 mps 736 mmHg 21%
    15:00 +34°C° 0 mm 5 mps 736 mmHg 25%
    16:00 +32°C° 0 mm 6 mps 736 mmHg 28%
    17:00 +28°C° 0 mm 4 mps 736 mmHg 41%
    18:00 +24°C° 0 mm 3 mps 736 mmHg 53%
    19:00 +19°C° 0 mm 2 mps 736 mmHg 66%
    20:00 +19°C° 0 mm 1 mps 736 mmHg 71%
    21:00 +18°C° 0 mm 1 mps 736 mmHg 75%
    22:00 +15°C° 0 mm 0 mps 736 mmHg 80%
    23:00 +15°C° 0 mm 0 mps 736 mmHg 80%

    2 Febrero, Domingo

    Tiempo Temperatura Precipitaciones Viento Presión Humedad
    00:00 +15°C° 0 mm 0 mps 735 mmHg 79%
    01:00 +14°C° 0 mm 0 mps 735 mmHg 79%
    02:00 +14°C° 0 mm 0 mps 735 mmHg 77%
    03:00 +14°C° 0 mm 0 mps 735 mmHg 76%
    04:00 +14°C° 0 mm 0 mps 735 mmHg 75%
    05:00 +16°C° 0 mm 0 mps 735 mmHg 66%
    06:00 +19°C° 0 mm 0 mps 735 mmHg 58%
    07:00 +21°C° 0 mm 0 mps 736 mmHg 49%
    08:00 +26°C° 0 mm 1 mps 736 mmHg 42%
    09:00 +28°C° 0 mm 2 mps 736 mmHg 36%
    10:00 +31°C° 0 mm 3 mps 736 mmHg 29%
    11:00 +33°C° 0 mm 4 mps 736 mmHg 27%
    12:00 +34°C° 0 mm 5 mps 736 mmHg 26%
    13:00 +35°C° 0 mm 6 mps 736 mmHg 25%
    14:00 +34°C° 0 mm 5 mps 736 mmHg 27%
    15:00 +33°C° 0 mm 5 mps 736 mmHg 30%
    16:00 +30°C° 0 mm 5 mps 736 mmHg 33%
    17:00 +27°C° 0 mm 4 mps 737 mmHg 42%
    18:00 +22°C° 0 mm 3 mps 737 mmHg 51%
    19:00 +19°C° 0 mm 2 mps 737 mmHg 60%
    20:00 +19°C° 0 mm 1 mps 737 mmHg 65%
    21:00 +16°C° 0 mm 1 mps 737 mmHg 71%
    22:00 +14°C° 0 mm 0 mps 738 mmHg 76%
    23:00 +14°C° 0 mm 0 mps 737 mmHg 77%

    3 Febrero, Lunes

    Tiempo Temperatura Precipitaciones Viento Presión Humedad
    00:00 +13°C° 0 mm 0 mps 737 mmHg 77%
    01:00 +13°C° 0 mm 0 mps 736 mmHg 78%
    02:00 +13°C° 0 mm 0 mps 736 mmHg 78%
    03:00 +13°C° 0 mm 0 mps 736 mmHg 78%
    04:00 +12°C° 0 mm 0 mps 736 mmHg 78%
    05:00 +15°C° 0 mm 0 mps 737 mmHg 70%
    06:00 +17°C° 0 mm 0 mps 737 mmHg 62%
    07:00 +19°C° 0 mm 0 mps 737 mmHg 53%
    08:00 +23°C° 0 mm 1 mps 737 mmHg 46%
    09:00 +26°C° 0 mm 2 mps 737 mmHg 39%
    10:00 +29°C° 0 mm 3 mps 737 mmHg 32%
    11:00 +30°C° 0 mm 4 mps 737 mmHg 30%
    12:00 +32°C° 0 mm 5 mps 737 mmHg 28%
    13:00 +33°C° 0 mm 6 mps 737 mmHg 26%
    14:00 +32°C° 0 mm 6 mps 737 mmHg 30%
    15:00 +29°C° 0 mm 6 mps 737 mmHg 34%
    16:00 +28°C° 0 mm 6 mps 737 mmHg 38%
    17:00 +25°C° 0 mm 4 mps 737 mmHg 46%
    18:00 +22°C° 0 mm 3 mps 737 mmHg 54%
    19:00 +19°C° 0 mm 2 mps 738 mmHg 62%
    20:00 +18°C° 0 mm 2 mps 738 mmHg 68%
    21:00 +16°C° 0 mm 1 mps 738 mmHg 74%
    22:00 +15°C° 0 mm 1 mps 738 mmHg 80%
    23:00 +15°C° 0 mm 1 mps 738 mmHg 80%
    Mostrar más